Погода Fujairah

Погода Fujairah : погода сейчас, прогноз погоды и архив. Всё, что Вы хотите узнать о погоде Fujairah!

Поиск расширенной информации на нашем сайте:

Полезная информация:

Другие новости

Новости СМИ2

Главная страница сайта

Новости сайта

03.07.2017

Напоминаем, что на нашем специализированном сайте Метеоцентр.Азия вы можете получить высокодетализированные автоматические прогнозы погоды по пунктам России, СНГ и мира в авиационном формате (включающие направление и скорость ветра, видимость, явления погоды, количество и форму облачности, нижнюю и верхнюю границу облачности).

Рекомендуем:

Погода Fujairah - сегодня

Время (UTC), дата Ветер
(°,м/с) 
Видим.   Явления Облачность Т
(°С)
Тd
(°С)
f(%) Тe
(°С)
Pmin
(гПа)
dP
(гПа)
Po
(мм)
O2
(г/м3)
Тmin Tmax R s Состояние
почвы
09 17.10.19 070 (В) 10 км    ясно 
+34.4 +15.4 32 +44  1013.6    758  267           
12 17.10.19 120 (ЮВ) 10 км    1/1 750 м 
[Sc]
+33.1 +18.4 42 +48  1012.9    756  268           
15 17.10.19 190 (Ю) 10 км    ясно 
+30.3 +21.2 58 +52  1012.7    756  269           
18 17.10.19 200 (Ю) 6000 м  мгла  ясно 
+28.8 +19.7 58 +47  1013    756  271    +34.6       
21 17.10.19 310 (СЗ) 7000 м  мгла  ясно 
+29.5 +11 32 +32  1012.3    755  273           
00 18.10.19 360 (С) 7000 м  мгла  ясно 
+29.6 +24.1 72 +58  1012    755  268           
03 18.10.19 310 (СЗ) 6000 м  мгла  ясно 
+27.4 +16.7 52 +39  1013.3    756  273           
06 18.10.19 060 (СВ) 10 км    ясно 
+34.5 +21.4 47 +56  1014.3    758  265  +26.8         
09 18.10.19 070 (В) 8000 м  мгла  1/1 900 м средняя 
[Cu hum|Ac trans]
+34.5 +17.5 37 +48  1011.9    755  266           
12 18.10.19 110 (В) 8000 м  мгла  1/1 900 м средняя 
[Sc|Ac trans]
+33.3 +20.3 47 +52  1010.4    754  266           
15 18.10.19 170 (Ю) 8000 м  мгла  ясно 
+30.3 +24 69 +59  1011.1    754  267           
18 18.10.19 210 (ЮЗ) 6000 м  мгла  ясно 
+28.8 +23 71 +55  1012    755  269    +35.1       
21 18.10.19 290 (З) 7000 м  мгла  ясно 
+28.5 +16.1 47 +39  1011.3    755  272           
00 19.10.19 310 (СЗ) 7000 м  мгла  ясно 
+28 +11.1 35 +31  1011.4    755  274           
03 19.10.19 310 (СЗ) 8000 м  мгла  ясно 
+27.6 +9.9 33 +28  1013.4    756  275           
06 19.10.19 060 (СВ) 7000 м  мгла  ясно 
+31.2 +25.2 71 +63  1015    757  267  +26.5         
09 19.10.19 090 (В) 7000 м  мгла  1/1 600 м 
[Sc]
+32 +25.2 67 +64  1012.7    756  265           
12 19.10.19 110 (В) 7000 м  мгла  4/4 750 м 
[Sc]
+32.1 +21.7 54 +55  1011.5    755  267           
15 19.10.19 100 (В) 5000 м  мгла  ясно 
+30.7 +22.2 61 +54  1012.7    756  268           
18 19.10.19 210 (ЮЗ) 7000 м  мгла  ясно 
+29.8 +21 59 +50  1013.7    756  270    +33       
21 19.10.19 240 (ЮЗ) 6000 м  мгла  ясно 
+28.8 +19.5 57 +46  1013.1    756  271           
00 20.10.19 240 (ЮЗ) 5000 м  мгла  ясно 
+27.7 +19.5 61 +45  1012.8    756  272           
03 20.10.19 320 (СЗ) 5000 м  мгла  ясно 
+27.4 +19.2 61 +44  1014.3    757  273           
06 20.10.19 120 (ЮВ) 6000 м  мгла  ясно 
+32 +20.7 51 +52  1015.9    758  268  +26.5         
09 20.10.19 100 (В) 7000 м  мгла  1/1 750 м 
[Sc]
+31.6 +23.9 64 +60  1014    758  267           
Время (UTC), дата Ветер
(°,м/с) 
Видим.   Явления Облачность Т
(°С)
Тd
(°С)
f(%) Тe
(°С)
Pmin
(гПа)
dP
(гПа)
Po
(мм)
O2
(г/м3)
Тmin Tmax R s Состояние
почвы

Для получения пояснительной информации подведите курсор к названию столбца.

ПОГОДА Fujairah - архив

Всё, что Вы хотите узнать о погоде Fujairah - удобно и подробно!

Выберите нужную дату (начиная с 1 января 2018* года) и нажмите кнопку "Найти".
Будут отображены архивные сводки погоды по пункту Fujairah, начиная с указанной даты.


Отображать данные в формате CSV (для использования в таблицах Excel)


Внимание! Наш архив погоды предназначен исключительно для личного некоммерческого использования в познавательных целях. Если Вам необходимы официальные справки о состоянии погоды (для производственных, юридических, коммерческих и т.п. целей), обращайтесь в органы Росгидромета.

*Примечание: данная дата относится к архиву по метеостанциям СССР (Россия, СНГ, Балтия).
Архив по метеостанциям Зарубежной Европы и Азии (кроме Китая) хранится 10 дней, по другим регионам земного шара (Китай, Африка, Америка, Австралия, Океания) - 1 день.

Fujairah - район местоположения метеостанции


Название, широта, долгота, высота метеостанции:
Fujairah 25.1°ш. 56.3°д. 28 м над ур. моря [United Arab emirates]

Дополнительная информация

В oтличие oт бoльшинства пoгoдных сайтoв мы публикуем пoдрoбную метеoинфoрмацию в детальнoм прoфессиoнальнoм фoрмате.

Характеристики температуры и влажнoсти вoздуха измеряются на высoте 2 м в тени вдали oт зданий и деревьев.
Скoрoсть ветра измеряется на высoте 10 м (на урoвне рoста челoвека скoрoсть ветра ниже в 1.5-2 раза). Если метеoстанция нахoдится в гoрoде или в лесу, тo скoрoсть ветра занижена на 2-4 м/с пo сравнению с oткрытым местoм. Скoрoсть ветра над акватoриями крупных рек и oзёр, а также на вершинах хoлмoв на 2-5 м/с выше, чем в oбычных услoвиях.
Атмoсфернoе давление в разных тoчках местнoсти мoжет значительнo oтличаться oт давления на метеoстанции, в зависимoсти oт услoвий рельефа (при пoдъёме на 10 м давление пoнижается примернo на 1 мм рт.ст.).